Simultaneous Nadir Overpasses (SNOs) Predictions

Prediction of SNOs between METOP-A and TERRA Satellite Orbit:

Table of predicted SNOs for the next 14.0 days since TLE Epoch: 11/29/2014
Index Date (METOP-A) Time (METOP-A) Lat,Lon (METOP-A) SZA (METOP-A ) Date (TERRA) Time (TERRA) Lat,Lon (TERRA) SZA (TERRA ) Distance(km) Time Diff (sec)
1 12/01/2014 21:54:49 -81.30, 78.35 73.90 12/01/2014 21:55:39 -81.31, 78.45 73.87 1.89 50
2 12/01/2014 22:45:28 81.31,-113.74 106.18 12/01/2014 22:45:05 81.31,-113.82 106.16 1.37 23
3 12/04/2014 17:29:11 -81.30, 144.69 73.55 12/04/2014 17:29:53 -81.30, 144.87 73.50 3.20 42
4 12/04/2014 18:19:50 81.31, -47.43 106.53 12/04/2014 18:19:19 81.31, -47.42 106.52 0.39 31
5 12/07/2014 13:03:33 -81.30,-148.68 73.22 12/07/2014 13:04:07 -81.31,-148.65 73.19 0.77 34
6 12
